Overview Statistics Trail Chart Weather Telemetry Raw packets
 

This is the latest recevied weather packets stored in our database for station/object N0QV. If no packets are shown the sender has not sent any weather packets the latest 10 day(s).

<< 69 70 71 72 73 74 75 >>
Time Temp. Humidity Pressure Rain* Wind** Luminosity Snow
1788182199 22.78° C 93% 1010.2 hPa 0 mm - 92 W/m² -
1788181896 22.78° C 94% 1010.1 hPa 0 mm - 88 W/m² -
1788181591 22.78° C 94% 1010.2 hPa 0 mm - 63 W/m² -
1788181287 22.22° C 95% 1009.9 hPa 0 mm - 60 W/m² -
1788180985 22.22° C 95% 1009.9 hPa 0 mm - 41 W/m² -
1788180681 22.22° C 95% 1010.1 hPa 0 mm - 37 W/m² -
1788180377 22.22° C 95% 1009.5 hPa 0 mm - 32 W/m² -
1788180072 22.22° C 95% 1009.5 hPa 0 mm - 37 W/m² -
1788179772 22.22° C 95% 1009.4 hPa 0 mm - 38 W/m² -
1788179466 22.22° C 95% 1009.3 hPa 0 mm - 40 W/m² -
1788179166 22.22° C 95% 1009.2 hPa 0 mm - 45 W/m² -
1788178862 21.67° C 95% 1009.5 hPa 0 mm - 40 W/m² -
1788178561 21.67° C 95% 1009.3 hPa 0 mm - 38 W/m² -
1788178258 21.67° C 95% 1009.3 hPa 0 mm - 29 W/m² -
1788177957 21.67° C 95% 1009.2 hPa 0 mm - 23 W/m² -
1788177653 21.67° C 95% 1009.4 hPa 0 mm - 18 W/m² -
1788177348 21.11° C 95% 1009.1 hPa 0 mm - 12 W/m² -
1788177043 21.11° C 95% 1009 hPa 0 mm - 6 W/m² -
1788176742 21.11° C 95% 1009.2 hPa 0 mm - 3 W/m² -
1788176437 21.11° C 95% 1009 hPa 0 mm - 1 W/m² -
1788176136 20.56° C 95% 1008.8 hPa 0 mm - 0 W/m² -
1788175832 20.56° C 95% 1008.9 hPa 0 mm - 0 W/m² -
1788175534 20.56° C 95% 1008.9 hPa 0 mm - 0 W/m² -
1788175227 20.56° C 95% 1008.9 hPa 0 mm - 0 W/m² -
1788174923 20.56° C 95% 1009 hPa 0 mm - 0 W/m² -

* Rain latest hour (hover to see other rain measurements)
** Current wind speed in m/s (hover to see current wind gust speed)